[[{"header":{"parameterUnit":"m.s-1","parameterCategory":2,"la1":30.2991,"la2":30.254,"lo1":-89.0895,"lo2":-89.0444,"dy":0.0017,"dx":0.0017,"nx":28,"ny":28,"refTime":"2024-03-27T03:00:00:Z","depth":"0","parameterNumber":2,"parameterNumberName":"U-component_of_CURRENTS"},"data":[0,0,0,0,0,0,0,0,0,0,0,0,0,0,0,0,0,0,0,0,0,0,0,0,0,0,0,0,0,0,0,0,0,0,0,0,0,0,0,0,0,0,0,0,0,0,0,0,0,0,0,0,0,0,0,0,0,0,0.2661,0.2661,0,0.2642,0.2642,0.2641,0.2616,0.2616,0.2615,0.2615,0.2591,0.2591,0.2591,0,0,0,0,0,0,0,0,0,0,0,0,0,0.271,0.2708,0.2661,0.2661,0.2661,0.2642,0.2642,0.2641,0.2616,0.2616,0.2615,0.2615,0.2592,0.2591,0.2591,0,0,0,0,0,0,0,0,0,0,0,0,0,0.2688,0.2708,0.2661,0.2647,0.2645,0.2642,0.2642,0.2641,0.2616,0.2616,0.2615,0.2615,0.2592,0.2591,0.2591,0.2596,0,0,0.2589,0.2589,0,0,0,0,0,0,0,0,0.2689,0.2686,0.2649,0.2648,0.2646,0.2632,0.265,0.2626,0.2616,0.2626,0.2615,0.2615,0.2606,0.2604,0.26,0.2595,0.2594,0.2589,0.2589,0.2588,0.2588,0,0,0,0,0,0,0,0.2691,0.2687,0.2652,0.2649,0.2647,0.2654,0.2649,0.2646,0.2617,0.2625,0.2623,0.2624,0.2605,0.26,0.2599,0.2594,0.2589,0.2588,0.2588,0.2588,0.2634,0.2635,0,0,0,0,0,0,0.2694,0.2688,0.2652,0.2651,0.2669,0.2653,0.2648,0.2636,0.2617,0.2615,0.2624,0.2623,0.2601,0.26,0.2598,0.2641,0.2588,0.2588,0.2588,0.2632,0.2634,0.2635,0,0,0,0,0,0,0.2695,0.2691,0.2653,0.2671,0.2667,0.2652,0.2639,0.2636,0.2636,0.2617,0.2614,0.2628,0.2601,0.2599,0.2605,0.2638,0.2588,0.2587,0.263,0.2633,0.2635,0.2703,0,0,0,0,0,0,0.2696,0.2691,0.2689,0.2671,0.2666,0.2657,0.2639,0.2636,0.2637,0.2635,0.2619,0.2616,0.26,0.2606,0.2605,0.2637,0.2587,0.2628,0.2631,0.2634,0.2699,0.2707,0.2714,0,0,0,0,0,0.2698,0.269,0.2688,0.2685,0.2661,0.2657,0.2656,0.2643,0.2638,0.2641,0.2635,0.2617,0.2624,0.2607,0.2605,0.2637,0.2627,0.263,0.2634,0.2695,0.2705,0.2714,0,0,0,0,0,0,0.2707,0.2686,0.2684,0.2669,0.267,0.2654,0.2656,0.2651,0.2648,0.2647,0.2629,0.2626,0.2647,0.2633,0.2615,0.2661,0.2626,0.2629,0.2673,0.2683,0.2691,0.2728,0.2586,0,0,0,0,0,0.271,0.2698,0.2689,0.268,0.2682,0.2673,0.2672,0.2666,0.266,0.2658,0.2646,0.2645,0.2659,0.2663,0.2662,0.2683,0.2739,0.2705,0.2713,0.272,0.275,0.2893,0.2919,0.2647,0.2647,0.2647,0,0,0.271,0.27,0.2692,0.2682,0.2681,0.269,0.2671,0.2672,0.2688,0.2657,0.2669,0.2667,0.267,0.2696,0.2705,0.2688,0.2821,0.2724,0.273,0.2757,0.29,0.2927,0.2951,0.2649,0.2649,0.2648,0,0,0.271,0.2699,0.2695,0.2699,0.2702,0.2704,0.2709,0.27,0.2705,0.2716,0.2711,0.2738,0.2729,0.2757,0.2768,0.2823,0.2857,0.2813,0.2886,0.3024,0.3049,0.3071,0.3156,0.3186,0.2819,0.2819,0.2819,0,0.2716,0.271,0.2697,0.2703,0.272,0.2714,0.2735,0.2738,0.2734,0.2769,0.2727,0.2799,0.2771,0.2867,0.2865,0.2845,0.2916,0.2846,0.3039,0.3062,0.3084,0.3166,0.3198,0.2823,0.2823,0.2822,0.2822,0,0.2715,0.2722,0.2724,0.2735,0.2751,0.2765,0.2779,0.2799,0.2805,0.2827,0.2908,0.2899,0.2959,0.2942,0.2905,0.305,0.3045,0.3033,0.3021,0.3117,0.3195,0.3227,0.2828,0.2827,0.2826,0.2825,0,0,0.2696,0.2721,0.2722,0.2754,0.2775,0.2794,0.2836,0.2897,0.2967,0.2971,0.3081,0.3085,0.3113,0.3129,0.3118,0.3205,0.3371,0.3177,0.3183,0.3272,0.3666,0.3574,0.3599,0.3409,0.3415,0.3421,0.365,0,0.2707,0.274,0.2749,0.2803,0.2832,0.2864,0.2917,0.2975,0.3027,0.3122,0.3173,0.3255,0.318,0.3224,0.3307,0.3355,0.3463,0.3308,0.3551,0.3557,0.3475,0.3637,0.3406,0.3586,0.3682,0.3687,0.3691,0,0.2702,0.2735,0.2787,0.2874,0.2893,0.2927,0.3055,0.3101,0.3233,0.3282,0.34,0.3442,0.3564,0.3486,0.3687,0.3599,0.3649,0.3681,0.3691,0.3613,0.3528,0.351,0.3641,0.353,0.374,0.3736,0.3733,0,0.2714,0.2764,0.282,0.284,0.2929,0.298,0.3036,0.3158,0.3249,0.3408,0.3512,0.3658,0.3748,0.3861,0.3889,0.3825,0.411,0.4036,0.4019,0.401,0.3865,0.3834,0.3929,0.4236,0.4235,0.4234,0.4234,0,0.2732,0.2781,0.2829,0.2866,0.2973,0.3008,0.3149,0.323,0.338,0.3522,0.3607,0.375,0.3854,0.4,0.4014,0.412,0.4233,0.4086,0.4097,0.3874,0.3843,0.3776,0.3713,0.4243,0.4241,0.4239,0.4238,0,0.2781,0.2782,0.2877,0.2963,0.2986,0.3077,0.3219,0.3329,0.3447,0.3643,0.3708,0.3883,0.4049,0.4147,0.4321,0.4279,0.425,0.4389,0.4086,0.4057,0.3875,0.3823,0.3842,0.3734,0.4419,0.4419,0.4418,0,0.2832,0.2873,0.2968,0.3024,0.3074,0.3181,0.3263,0.3367,0.3483,0.3711,0.3817,0.4026,0.4136,0.4348,0.4326,0.4403,0.4279,0.4239,0.4066,0.3889,0.3842,0.3691,0.3586,0.3896,0.3891,0.3888,0.3885,0,0.2982,0.3001,0.3082,0.3176,0.325,0.3328,0.3435,0.3516,0.3642,0.3765,0.3922,0.4015,0.4178,0.4123,0.4207,0.4211,0.3993,0.4163,0.4091,0.3553,0.329,0.3178,0.3689,0.3851,0.3855,0.3857,0.3859,0.386,0.3124,0.3202,0.3273,0.3344,0.3412,0.3438,0.3437,0.3535,0.3631,0.3693,0.3871,0.3876,0.3902,0.3951,0.3945,0.377,0.3791,0.3621,0.361,0.3503,0.3279,0.3693,0.3788,0.3791,0.3793,0.3796,0.3797,0,0.3262,0.3309,0.3427,0.3458,0.3473,0.3478,0.3515,0.3441,0.3432,0.3535,0.3572,0.3537,0.3463,0.3471,0.3362,0.3226,0.3064,0.3145,0.288,0.2835,0.3313,0.3165,0.2993,0.2993,0.2993,0.2993,0.2993,0.2993,0.335,0.3431,0.3438,0.3454,0.3445,0.3326,0.3264,0.3185,0.318,0.3072,0.2997,0.3027,0.3132,0.3074,0.2912,0.2837,0.2631,0.2478,0.2551,0.2864,0.2906,0.2946,0.2795,0.2548,0.2547,0.19,0.1895,0.1892]},{"header":{"parameterUnit":"m.s-1","parameterCategory":2,"la1":30.2991,"la2":30.254,"lo1":-89.0895,"lo2":-89.0444,"dy":0.0017,"dx":0.0017,"nx":28,"ny":28,"refTime":"2024-03-27T03:00:00:Z","depth":"0","parameterNumber":3,"parameterNumberName":"V-component_of_CURRENTS"},"data":[0,0,0,0,0,0,0,0,0,0,0,0,0,0,0,0,0,0,0,0,0,0,0,0,0,0,0,0,0,0,0,0,0,0,0,0,0,0,0,0,0,0,0,0,0,0,0,0,0,0,0,0,0,0,0,0,0,0,0.0061,0.0061,0,0.0035,0.0035,0.0034,0.0006,0.0006,0.0005,0.0005,-0.0047,-0.0048,-0.0049,0,0,0,0,0,0,0,0,0,0,0,0,0,0.0026,0.0027,0.0061,0.0061,0.0061,0.0035,0.0034,0.0034,0.0006,0.0006,0.0005,0.0005,-0.0046,-0.0048,-0.0049,0,0,0,0,0,0,0,0,0,0,0,0,0,0.0023,0.0027,0.0061,0.0045,0.0043,0.0035,0.0034,0.0034,0.0006,0.0006,0.0005,0.0005,-0.0046,-0.0047,-0.0049,-0.0051,0,0,-0.0054,-0.0055,0,0,0,0,0,0,0,0,0.0024,0.0025,0.0047,0.0046,0.0044,0.0024,0.0003,0.0005,0.0006,0.0019,0.0005,0.0005,-0.0024,-0.0028,-0.0033,-0.0054,-0.0056,-0.0054,-0.0055,-0.0056,-0.0057,0,0,0,0,0,0,0,0.0024,0.0025,0.0049,0.0047,0.0045,0.0018,0.0017,0.0003,-0.0001,0.0018,0.0016,0.0015,-0.0025,-0.0031,-0.0035,-0.0057,-0.0054,-0.0056,-0.0057,-0.0058,-0.0074,-0.0074,0,0,0,0,0,0,0.0034,0.0026,0.005,0.0049,0.0034,0.0019,0.0018,0.003,-0.0001,-0.0005,0.0016,0.0014,-0.0028,-0.0033,-0.0037,-0.0021,-0.0056,-0.0058,-0.0059,-0.0075,-0.0074,-0.0073,0,0,0,0,0,0,0.0033,0.0037,0.0051,0.0037,0.0037,0.0021,0.0033,0.003,0.0027,-0.0002,-0.0007,0.0018,-0.0029,-0.0034,-0.0044,-0.0024,-0.0058,-0.006,-0.0075,-0.0075,-0.0074,-0.0003,0,0,0,0,0,0,0.0033,0.0037,0.0045,0.0038,0.0038,0.0057,0.0034,0.003,0.0028,0.0026,-0.0002,-0.0008,-0.003,-0.0042,-0.0046,-0.0027,-0.0061,-0.0076,-0.0075,-0.0074,-0.0006,0.0001,0.0006,0,0,0,0,0,0.0032,0.005,0.0046,0.0048,0.0051,0.0058,0.0056,0.0041,0.0029,0.0035,0.0012,-0.0006,-0.0038,-0.0043,-0.0048,-0.0029,-0.0077,-0.0075,-0.0074,-0.0008,-0.0001,0.0006,0,0,0,0,0,0,0.0036,0.0049,0.0044,0.0064,0.0065,0.0054,0.0058,0.0047,0.0035,0.0029,-0.0001,-0.0007,-0.001,-0.003,-0.0034,-0.0031,-0.006,-0.0059,-0.0008,-0.0001,0.0005,0.0032,-0.0063,0,0,0,0,0,0.0042,0.0061,0.0063,0.0079,0.0082,0.0071,0.0069,0.0061,0.005,0.0044,0.0025,0.0004,-0.0009,-0.0013,-0.0033,-0.0028,-0.0029,-0.002,-0.0014,-0.0009,0.0009,0.0027,0.0037,-0.0069,-0.0069,-0.0069,0,0,0.0046,0.0057,0.0066,0.0081,0.0079,0.0098,0.0069,0.0075,0.0092,0.004,0.0052,0.002,-0.0006,-0.0003,-0.0006,-0.0016,0.002,-0.0007,-0.0002,0.0013,0.003,0.004,0.005,-0.0068,-0.0069,-0.0069,0,0,0.0074,0.0077,0.0105,0.0113,0.0119,0.0115,0.0121,0.0115,0.0115,0.0118,0.0086,0.0073,0.0051,0.0043,0.0034,0.0063,0.0046,0.0049,0.0108,0.0125,0.0135,0.0143,0.0154,0.0163,0.0058,0.0058,0.0058,0,0.0078,0.012,0.0112,0.0142,0.0159,0.0129,0.0166,0.016,0.0151,0.0165,0.0132,0.012,0.008,0.0108,0.0101,0.0079,0.0081,0.0085,0.0135,0.0143,0.0151,0.016,0.0169,0.0062,0.0061,0.0061,0.0061,0,0.0132,0.0161,0.0179,0.0213,0.0226,0.025,0.025,0.0257,0.0246,0.0244,0.0262,0.0214,0.0217,0.019,0.0146,0.0182,0.0164,0.0137,0.0123,0.0166,0.0173,0.0181,0.0067,0.0066,0.0065,0.0064,0,0,0.0156,0.0209,0.0216,0.0257,0.0271,0.0297,0.0323,0.0357,0.0399,0.0367,0.0432,0.0371,0.0349,0.0338,0.0291,0.0284,0.031,0.0229,0.0228,0.0251,0.0349,0.0292,0.0294,0.0293,0.0295,0.0296,0.0334,0,0.0204,0.0286,0.0295,0.0371,0.0417,0.0412,0.0452,0.0471,0.0478,0.0525,0.0488,0.0516,0.0409,0.0419,0.0394,0.0339,0.0334,0.0302,0.0296,0.0296,0.0248,0.0303,0.0275,0.0303,0.0341,0.0342,0.0343,0,0.0263,0.0314,0.0402,0.0484,0.0504,0.0541,0.062,0.0651,0.0688,0.0698,0.0711,0.0687,0.068,0.0584,0.0531,0.0516,0.0439,0.0382,0.0383,0.0313,0.0253,0.0264,0.0315,0.0172,0.0355,0.0354,0.0354,0,0.0313,0.0395,0.0477,0.0501,0.0576,0.0624,0.0661,0.0707,0.0761,0.0822,0.0874,0.0856,0.0865,0.0783,0.0636,0.0599,0.0574,0.052,0.0402,0.0397,0.0366,0.0355,0.0288,0.0493,0.0493,0.0493,0.0493,0,0.0377,0.0441,0.0511,0.0559,0.0665,0.0694,0.0802,0.0836,0.0912,0.1006,0.0974,0.105,0.091,0.0869,0.0724,0.0593,0.065,0.0433,0.0412,0.0387,0.0378,0.0242,0.0166,0.0495,0.0494,0.0494,0.0494,0,0.0424,0.0466,0.0563,0.0657,0.0694,0.077,0.0881,0.0956,0.1021,0.1152,0.1186,0.1203,0.1165,0.1013,0.0885,0.0713,0.0505,0.0523,0.0494,0.0467,0.0211,0.014,0.0056,0.0,0.0429,0.0428,0.0427,0,0.0456,0.0512,0.0629,0.0683,0.0729,0.0837,0.0911,0.0999,0.1091,0.1255,0.1335,0.1349,0.1374,0.1166,0.0886,0.0663,0.0506,0.0456,0.0368,0.0211,0.0118,0.0055,0.001,0.0359,0.0358,0.0357,0.0356,0,0.051,0.0547,0.0622,0.0729,0.082,0.0938,0.1062,0.1156,0.1286,0.1419,0.1579,0.1625,0.1438,0.1204,0.0863,0.0686,0.0349,0.0423,0.0284,0.0082,-0.0009,-0.0078,0.0313,0.0346,0.0347,0.0348,0.0348,0.0349,0.0537,0.059,0.0674,0.0779,0.0883,0.1032,0.1141,0.1291,0.1474,0.1677,0.1721,0.1814,0.1463,0.1015,0.0757,0.0259,0.0281,0.0088,0.0026,-0.0015,-0.0107,0.0251,0.0235,0.0235,0.0235,0.0235,0.0236,0,0.0569,0.0626,0.0713,0.0854,0.0974,0.1034,0.1233,0.1353,0.158,0.1758,0.189,0.1778,0.1352,0.092,0.0255,-0.0091,-0.0203,-0.0261,-0.0349,-0.0367,-0.0023,-0.0068,-0.0178,-0.0178,-0.0177,-0.0177,-0.0177,-0.0177,0.0589,0.0669,0.0714,0.0901,0.1009,0.1182,0.1304,0.1489,0.1643,0.1837,0.1906,0.193,0.1612,0.0493,-0.0269,-0.044,-0.0628,-0.07,-0.0769,-0.0546,-0.0519,-0.0492,-0.0552,-0.0762,-0.0763,-0.1091,-0.1094,-0.1097]}],[{"header":{"parameterUnit":"m.s-1","parameterCategory":2,"la1":30.2991,"la2":30.254,"lo1":-89.0895,"lo2":-89.0444,"dy":0.0017,"dx":0.0017,"nx":28,"ny":28,"refTime":"2024-03-27T03:00:00:Z","depth":"2","parameterNumber":2,"parameterNumberName":"U-component_of_CURRENTS"},"data":[0,0,0,0,0,0,0,0,0,0,0,0,0,0,0,0,0,0,0,0,0,0,0,0,0,0,0,0,0,0,0,0,0,0,0,0,0,0,0,0,0,0,0,0,0,0,0,0,0,0,0,0,0,0,0,0,0,0,0.2348,0.2349,0,0.235,0.235,0.235,0.2339,0.2339,0.2339,0.2339,0.2331,0.2331,0.2331,0,0,0,0,0,0,0,0,0,0,0,0,0,0.2356,0.2356,0.2348,0.2349,0.2349,0.235,0.235,0.235,0.2339,0.2339,0.2339,0.2339,0.2331,0.2331,0.2331,0,0,0,0,0,0,0,0,0,0,0,0,0,0.2353,0.2356,0.2348,0.2345,0.2345,0.235,0.235,0.235,0.2339,0.2339,0.2339,0.2339,0.2331,0.2331,0.2331,0.2335,0,0,0.2331,0.2331,0,0,0,0,0,0,0,0,0.2353,0.2353,0.2345,0.2345,0.2345,0.2346,0.235,0.2345,0.234,0.234,0.2339,0.2339,0.2336,0.2336,0.2334,0.2334,0.2334,0.2331,0.233,0.233,0.233,0,0,0,0,0,0,0,0.2353,0.2353,0.2347,0.2345,0.2345,0.235,0.2349,0.2349,0.2338,0.234,0.2339,0.2342,0.2336,0.2335,0.2334,0.2334,0.2331,0.233,0.233,0.233,0.238,0.2382,0,0,0,0,0,0,0.2356,0.2353,0.2347,0.2348,0.2351,0.235,0.2349,0.2344,0.2338,0.2337,0.2342,0.2342,0.2335,0.2334,0.2334,0.2374,0.233,0.233,0.233,0.2379,0.2381,0.2382,0,0,0,0,0,0,0.2356,0.2355,0.2347,0.2352,0.2352,0.2351,0.2345,0.2345,0.2352,0.2341,0.2339,0.2352,0.2335,0.2334,0.2347,0.2372,0.233,0.233,0.2377,0.238,0.2382,0.2432,0,0,0,0,0,0,0.2356,0.2355,0.2358,0.2352,0.2352,0.2358,0.2346,0.2345,0.2355,0.2354,0.2348,0.2347,0.2334,0.2347,0.2347,0.2371,0.233,0.2376,0.2378,0.2381,0.2428,0.2435,0.2441,0,0,0,0,0,0.2356,0.2356,0.2357,0.2357,0.2353,0.2359,0.236,0.2357,0.2356,0.2362,0.2362,0.2347,0.2363,0.2348,0.2347,0.2373,0.2374,0.2378,0.2381,0.2425,0.2434,0.2441,0,0,0,0,0,0,0.2359,0.2355,0.2356,0.2355,0.2363,0.2358,0.2365,0.2366,0.2371,0.2373,0.236,0.2359,0.2381,0.2372,0.2355,0.2397,0.2369,0.2372,0.2403,0.2411,0.2417,0.2436,0.233,0,0,0,0,0,0.2363,0.2362,0.2364,0.2365,0.2371,0.2372,0.2377,0.2377,0.2379,0.2381,0.2377,0.238,0.2393,0.2397,0.24,0.242,0.2445,0.2438,0.2445,0.245,0.2467,0.2549,0.2565,0.2393,0.2393,0.2392,0,0,0.2363,0.2363,0.2362,0.2367,0.2372,0.2384,0.2374,0.2385,0.2401,0.238,0.2399,0.24,0.2403,0.2426,0.2436,0.2422,0.2509,0.2454,0.2459,0.2473,0.2554,0.2571,0.2586,0.2395,0.2394,0.2394,0,0,0.2365,0.2367,0.237,0.238,0.2394,0.2399,0.2407,0.2411,0.242,0.2438,0.2435,0.2457,0.2459,0.2476,0.2484,0.2531,0.254,0.2529,0.2577,0.2657,0.2672,0.2686,0.2723,0.274,0.2533,0.2533,0.2533,0,0.237,0.2374,0.2374,0.2386,0.2403,0.2409,0.2428,0.2438,0.2446,0.2472,0.245,0.2499,0.2489,0.2547,0.2557,0.2547,0.2583,0.2544,0.2667,0.2681,0.2695,0.273,0.2748,0.2536,0.2535,0.2535,0.2535,0,0.2374,0.2386,0.2393,0.2411,0.2429,0.2447,0.2466,0.2487,0.25,0.2517,0.2573,0.2571,0.261,0.2605,0.2589,0.2681,0.2672,0.2666,0.2649,0.2716,0.2747,0.2765,0.254,0.2539,0.2538,0.2537,0,0,0.2359,0.2391,0.2393,0.2416,0.2448,0.2463,0.2504,0.2552,0.2596,0.2609,0.268,0.2692,0.271,0.2721,0.2718,0.277,0.2873,0.2759,0.2762,0.2798,0.3036,0.2953,0.2964,0.29,0.2904,0.2907,0.3014,0,0.2368,0.2396,0.2414,0.2454,0.2476,0.2511,0.2551,0.2597,0.2639,0.2705,0.2739,0.2797,0.2752,0.2785,0.2834,0.2873,0.2926,0.2844,0.2964,0.2967,0.2889,0.2985,0.2729,0.2798,0.3031,0.3034,0.3036,0,0.2366,0.239,0.2429,0.2491,0.2506,0.2534,0.2622,0.2662,0.2757,0.2797,0.2872,0.2906,0.2991,0.2943,0.3058,0.3014,0.3035,0.305,0.3055,0.2977,0.292,0.2773,0.2822,0.3066,0.3064,0.3061,0.3059,0,0.2354,0.2403,0.2439,0.2457,0.2522,0.256,0.2606,0.2693,0.2748,0.2877,0.2941,0.3039,0.3104,0.3164,0.3188,0.3148,0.331,0.326,0.3202,0.3195,0.3,0.2969,0.3358,0.3358,0.3358,0.3358,0.3357,0,0.2356,0.2382,0.2436,0.2454,0.2518,0.2564,0.2654,0.2713,0.2818,0.2911,0.2995,0.3082,0.317,0.3259,0.3262,0.3294,0.3379,0.3238,0.3237,0.3006,0.2976,0.3222,0.3205,0.3362,0.3361,0.336,0.3359,0,0.2339,0.2367,0.2415,0.2486,0.2512,0.2562,0.267,0.2729,0.2834,0.2965,0.3018,0.3153,0.3267,0.3328,0.3434,0.3383,0.3423,0.3409,0.311,0.3072,0.3229,0.3213,0.3361,0.3359,0.3358,0.3357,0.3356,0,0.2337,0.2356,0.2432,0.2466,0.2501,0.2581,0.2632,0.2731,0.2799,0.2998,0.3054,0.3212,0.3285,0.3393,0.3366,0.3379,0.3431,0.3136,0.3006,0.3255,0.324,0.3226,0.3212,0.2759,0.2753,0.2748,0.2745,0,0.2341,0.2364,0.2395,0.2472,0.2525,0.2581,0.2664,0.2703,0.2839,0.2923,0.304,0.3114,0.3237,0.3128,0.3157,0.3123,0.3111,0.3039,0.3428,0.2792,0.2695,0.2677,0.2682,0.2703,0.2707,0.271,0.2712,0.2714,0.2339,0.2352,0.24,0.2445,0.2521,0.2549,0.2551,0.2628,0.268,0.276,0.2914,0.2921,0.2959,0.2853,0.2771,0.2707,0.2907,0.2756,0.2768,0.2785,0.2691,0.2597,0.2567,0.257,0.2573,0.2575,0.2577,0,0.2336,0.2324,0.2372,0.2402,0.2448,0.2519,0.2539,0.2488,0.2477,0.2588,0.2636,0.2441,0.2373,0.241,0.2242,0.223,0.2181,0.2137,0.2044,0.2089,0.2129,0.1997,0.169,0.1687,0.1684,0.1681,0,0,0.2328,0.232,0.2296,0.2296,0.235,0.2323,0.2302,0.2223,0.2221,0.2162,0.2142,0.2312,0.2369,0.201,0.1954,0.1791,0.1924,0.1724,0.2445,0.2383,0.2419,0.2506,0.2358,0,0,0,0,0]},{"header":{"parameterUnit":"m.s-1","parameterCategory":2,"la1":30.2991,"la2":30.254,"lo1":-89.0895,"lo2":-89.0444,"dy":0.0017,"dx":0.0017,"nx":28,"ny":28,"refTime":"2024-03-27T03:00:00:Z","depth":"2","parameterNumber":3,"parameterNumberName":"V-component_of_CURRENTS"},"data":[0,0,0,0,0,0,0,0,0,0,0,0,0,0,0,0,0,0,0,0,0,0,0,0,0,0,0,0,0,0,0,0,0,0,0,0,0,0,0,0,0,0,0,0,0,0,0,0,0,0,0,0,0,0,0,0,0,0,0.0169,0.0169,0,0.014,0.014,0.014,0.0118,0.0118,0.0117,0.0117,0.0071,0.007,0.0069,0,0,0,0,0,0,0,0,0,0,0,0,0,0.0149,0.015,0.0169,0.0169,0.0168,0.014,0.014,0.0139,0.0118,0.0118,0.0117,0.0117,0.0072,0.007,0.0069,0,0,0,0,0,0,0,0,0,0,0,0,0,0.0142,0.015,0.0169,0.0155,0.0153,0.0141,0.014,0.0139,0.0118,0.0118,0.0117,0.0117,0.0072,0.007,0.0069,0.0062,0,0,0.0064,0.0063,0,0,0,0,0,0,0,0,0.0143,0.0143,0.0157,0.0156,0.0154,0.0133,0.0116,0.0113,0.0118,0.013,0.0117,0.0117,0.0091,0.0088,0.0082,0.006,0.0058,0.0063,0.0062,0.0062,0.0061,0,0,0,0,0,0,0,0.0143,0.0144,0.0157,0.0157,0.0155,0.0131,0.013,0.0115,0.0111,0.0129,0.0128,0.0126,0.009,0.0083,0.008,0.0057,0.0063,0.0062,0.0061,0.006,0.0036,0.0036,0,0,0,0,0,0,0.0152,0.0145,0.0158,0.0156,0.0149,0.0132,0.0131,0.0139,0.0111,0.0107,0.0126,0.0125,0.0086,0.0082,0.0079,0.0087,0.0062,0.006,0.0059,0.0036,0.0036,0.0036,0,0,0,0,0,0,0.0152,0.0154,0.0159,0.0149,0.0149,0.0133,0.0142,0.0139,0.0136,0.011,0.0105,0.0127,0.0086,0.0081,0.0071,0.0084,0.0059,0.0058,0.0035,0.0036,0.0036,0.0092,0,0,0,0,0,0,0.0152,0.0154,0.016,0.0151,0.015,0.0159,0.0142,0.0138,0.0135,0.0134,0.0109,0.0104,0.0086,0.0073,0.0069,0.0082,0.0057,0.0035,0.0035,0.0036,0.009,0.0094,0.0098,0,0,0,0,0,0.0151,0.0163,0.0161,0.0162,0.0159,0.016,0.0157,0.0144,0.0136,0.014,0.0121,0.0105,0.0074,0.0072,0.0067,0.008,0.0034,0.0035,0.0036,0.0088,0.0093,0.0098,0,0,0,0,0,0,0.0153,0.0161,0.0159,0.0171,0.0169,0.0157,0.0158,0.0149,0.0137,0.0134,0.0109,0.0103,0.0097,0.008,0.0078,0.0074,0.0052,0.0052,0.0093,0.0098,0.0103,0.0122,0.0055,0,0,0,0,0,0.0158,0.0172,0.0171,0.0181,0.0183,0.0171,0.0168,0.0161,0.015,0.0145,0.0128,0.0109,0.0096,0.0091,0.0073,0.0073,0.0053,0.0077,0.0081,0.0085,0.0097,0.0081,0.0085,0.0039,0.0039,0.0039,0,0,0.0159,0.0167,0.0173,0.0182,0.0179,0.0191,0.0169,0.0171,0.0182,0.0141,0.0147,0.0121,0.0098,0.0096,0.0092,0.0085,0.0085,0.0086,0.009,0.0099,0.0082,0.0086,0.009,0.004,0.0039,0.0039,0,0,0.0176,0.018,0.02,0.0204,0.0208,0.0203,0.0208,0.02,0.0199,0.0198,0.0172,0.0158,0.0138,0.0127,0.0118,0.0136,0.0106,0.0128,0.0171,0.0155,0.0159,0.0162,0.0134,0.0135,0.0135,0.0135,0.0135,0,0.0177,0.0208,0.0203,0.0224,0.0237,0.0215,0.024,0.0234,0.0223,0.0229,0.0208,0.0183,0.0157,0.0164,0.0166,0.0148,0.0129,0.0154,0.0162,0.0164,0.0167,0.0138,0.0137,0.0137,0.0137,0.0137,0.0137,0,0.0213,0.0235,0.0248,0.0274,0.0284,0.03,0.0299,0.0302,0.0293,0.0286,0.0286,0.0247,0.0239,0.0222,0.0199,0.0206,0.0183,0.0166,0.0151,0.0175,0.0142,0.0141,0.0141,0.014,0.014,0.0139,0,0,0.0224,0.0267,0.0272,0.0304,0.0316,0.0335,0.0351,0.0369,0.0394,0.0363,0.0394,0.0351,0.0329,0.0317,0.0283,0.0263,0.0251,0.0226,0.0224,0.0205,0.0208,0.017,0.0164,0.0236,0.0236,0.0236,0.0176,0,0.0257,0.0318,0.0327,0.0384,0.0419,0.0415,0.044,0.0449,0.0448,0.0467,0.0425,0.0436,0.0367,0.0371,0.0337,0.028,0.0252,0.0269,0.0184,0.0181,0.0149,0.0163,0.019,0.0136,0.0174,0.0174,0.0174,0,0.0296,0.0336,0.0404,0.0465,0.048,0.0509,0.056,0.0581,0.0587,0.0587,0.0575,0.0545,0.0517,0.0458,0.0364,0.0378,0.0299,0.0242,0.0238,0.0186,0.0141,0.012,0.0132,0.0171,0.0171,0.0171,0.0172,0,0.0331,0.0394,0.0459,0.0478,0.0534,0.0569,0.0599,0.062,0.0661,0.0675,0.0704,0.0647,0.0641,0.0538,0.0407,0.0392,0.0297,0.0263,0.015,0.0146,0.0144,0.0139,0.0196,0.0196,0.0196,0.0196,0.0197,0,0.0378,0.0427,0.0486,0.0523,0.0609,0.0627,0.0716,0.0728,0.077,0.0844,0.0777,0.0812,0.0662,0.0587,0.0449,0.0297,0.0326,0.0162,0.0133,0.0161,0.0159,0.0171,0.0169,0.0194,0.0195,0.0195,0.0195,0,0.042,0.0449,0.053,0.0602,0.0634,0.07,0.0803,0.0867,0.0886,0.0982,0.0999,0.0943,0.0843,0.0673,0.0508,0.0364,0.0218,0.0153,0.0188,0.0163,0.0063,0.0064,0.0026,0.0024,0.0023,0.0021,0.002,0,0.0452,0.0499,0.0597,0.0655,0.0698,0.0799,0.0875,0.0925,0.1005,0.1072,0.1129,0.1055,0.1017,0.0736,0.0484,0.0236,0.0203,0.0086,0.0057,0.0073,0.0048,0.0052,0.0055,0.0071,0.0071,0.007,0.007,0,0.0522,0.0553,0.0628,0.0749,0.0842,0.095,0.1063,0.1143,0.1225,0.1275,0.1329,0.1298,0.1046,0.0793,0.0446,0.0278,0.0125,0.0068,0.0094,0.0107,0.011,0.0087,0.009,0.0066,0.0066,0.0067,0.0067,0.0067,0.0581,0.0646,0.0748,0.0865,0.0969,0.1103,0.1192,0.1308,0.1423,0.1504,0.1473,0.1409,0.1137,0.068,0.0392,0.0086,0.0099,-0.0014,-0.001,-0.0006,0.0007,0.0007,-0.0054,-0.0055,-0.0055,-0.0055,-0.0055,0,0.0662,0.074,0.0856,0.0995,0.1112,0.1156,0.1318,0.1391,0.1517,0.1578,0.1584,0.1311,0.1036,0.072,0.0273,0.0001,-0.0011,-0.0094,-0.0039,-0.0033,-0.0028,-0.0014,-0.0083,-0.0084,-0.0085,-0.0085,0,0,0.0711,0.0835,0.0896,0.1101,0.1193,0.1331,0.1417,0.1504,0.1563,0.159,0.1547,0.1483,0.1121,0.079,0.043,0.0175,0.0128,0.0117,0.0169,0.0282,0.029,0.0048,0.0079,0,0,0,0,0]}],[{"header":{"parameterUnit":"m.s-1","parameterCategory":2,"la1":30.2991,"la2":30.254,"lo1":-89.0895,"lo2":-89.0444,"dy":0.0017,"dx":0.0017,"nx":28,"ny":28,"refTime":"2024-03-27T03:00:00:Z","depth":"4","parameterNumber":2,"parameterNumberName":"U-component_of_CURRENTS"},"data":[0,0,0,0,0,0,0,0,0,0,0,0,0,0,0,0,0,0,0,0,0,0,0,0,0,0,0,0,0,0,0,0,0,0,0,0,0,0,0,0,0,0,0,0,0,0,0,0,0,0,0,0,0,0,0,0,0,0,0.1583,0.1584,0,0.1636,0.1636,0.1637,0.1683,0.1683,0.1684,0.1685,0.1744,0.1745,0.1746,0,0,0,0,0,0,0,0,0,0,0,0,0,0.1523,0.1524,0.1583,0.1584,0.1585,0.1636,0.1637,0.1637,0.1682,0.1683,0.1684,0.1685,0.1744,0.1745,0.1746,0,0,0,0,0,0,0,0,0,0,0,0,0,0.1558,0.1524,0.1583,0.1615,0.1619,0.1636,0.1637,0.1637,0.1682,0.1683,0.1684,0.1685,0.1743,0.1745,0.1746,0.1734,0,0,0.175,0.1751,0,0,0,0,0,0,0,0,0.1556,0.156,0.161,0.1613,0.1617,0.1655,0.1637,0.1671,0.1682,0.1656,0.1685,0.1686,0.1715,0.1719,0.1724,0.1737,0.174,0.175,0.1751,0.1752,0.1752,0,0,0,0,0,0,0,0.1553,0.1558,0.1602,0.161,0.1615,0.1627,0.1633,0.1644,0.1678,0.1659,0.1662,0.1671,0.1717,0.1723,0.1726,0.1741,0.175,0.1752,0.1753,0.1753,0.1843,0.1844,0,0,0,0,0,0,0.1549,0.1556,0.1601,0.1604,0.159,0.1628,0.1634,0.164,0.1678,0.1685,0.167,0.1673,0.172,0.1724,0.1728,0.18,0.1752,0.1753,0.1754,0.1841,0.1843,0.1845,0,0,0,0,0,0,0.1548,0.1553,0.1599,0.1583,0.159,0.1628,0.1634,0.1641,0.1681,0.1687,0.1694,0.1708,0.1721,0.1726,0.1769,0.1799,0.1754,0.1755,0.1839,0.1842,0.1844,0.1889,0,0,0,0,0,0,0.1546,0.1552,0.1572,0.1582,0.159,0.1629,0.1634,0.1641,0.1684,0.1689,0.1721,0.1725,0.1722,0.1767,0.177,0.18,0.1756,0.1838,0.1841,0.1843,0.1886,0.1893,0.1899,0,0,0,0,0,0.1543,0.1559,0.1572,0.1579,0.1611,0.1631,0.1636,0.1665,0.1685,0.1705,0.1732,0.1726,0.1788,0.1769,0.1773,0.1804,0.1836,0.184,0.1843,0.1883,0.1891,0.1899,0,0,0,0,0,0,0.1545,0.1566,0.1581,0.1604,0.1627,0.164,0.1667,0.1684,0.1721,0.1738,0.1743,0.1749,0.1799,0.1797,0.1776,0.184,0.1812,0.1817,0.1841,0.1849,0.1856,0.1856,0.1757,0,0,0,0,0,0.1553,0.1574,0.1592,0.1616,0.1631,0.1656,0.1676,0.1695,0.172,0.174,0.1761,0.1787,0.1809,0.1827,0.1844,0.1876,0.1881,0.19,0.1907,0.1912,0.1916,0.1959,0.1969,0.1856,0.1856,0.1856,0,0,0.1561,0.1577,0.159,0.1619,0.1642,0.1664,0.1672,0.171,0.1738,0.1739,0.1796,0.1813,0.1824,0.1863,0.1885,0.1869,0.1946,0.1917,0.1921,0.1922,0.1963,0.1974,0.1984,0.1858,0.1858,0.1858,0,0,0.1573,0.1603,0.1621,0.1642,0.1683,0.1696,0.1715,0.1747,0.1779,0.1823,0.1835,0.1873,0.1907,0.192,0.1929,0.1982,0.1981,0.1995,0.2027,0.2068,0.2078,0.2086,0.21,0.2109,0.1996,0.1997,0.1997,0,0.1587,0.1609,0.1631,0.1653,0.168,0.1713,0.174,0.1769,0.1815,0.1843,0.1851,0.192,0.193,0.1975,0.1994,0.1996,0.2014,0.1993,0.2076,0.2085,0.2093,0.2105,0.2114,0.1999,0.1999,0.1999,0.1998,0,0.1599,0.1634,0.165,0.1688,0.1717,0.175,0.1785,0.1828,0.1869,0.1894,0.1963,0.1982,0.2025,0.2034,0.2029,0.2093,0.2085,0.208,0.2054,0.2107,0.2116,0.2125,0.2003,0.2002,0.2001,0.2,0,0,0.1588,0.1648,0.1658,0.1685,0.1743,0.1762,0.182,0.1872,0.1916,0.1967,0.2025,0.2065,0.2092,0.2105,0.2115,0.2143,0.2207,0.2141,0.2142,0.2149,0.2292,0.2149,0.2145,0.2226,0.2229,0.223,0.2273,0,0.1599,0.1644,0.1674,0.1728,0.1755,0.1806,0.1852,0.1907,0.196,0.2022,0.2063,0.2123,0.2116,0.2151,0.2183,0.221,0.2236,0.2195,0.2244,0.2245,0.2107,0.2152,0.2237,0.228,0.2282,0.2284,0.2285,0,0.1599,0.1632,0.1685,0.1754,0.1773,0.1813,0.1899,0.1945,0.2031,0.2077,0.2145,0.2183,0.225,0.2233,0.2308,0.229,0.2298,0.2303,0.2305,0.2161,0.2119,0.2219,0.2301,0.23,0.2299,0.2298,0.2297,0,0.1569,0.1639,0.1686,0.1709,0.1787,0.1834,0.1887,0.1971,0.2017,0.2128,0.2177,0.2257,0.2319,0.235,0.2373,0.2359,0.2436,0.2415,0.2287,0.2277,0.2372,0.2363,0.246,0.2459,0.2459,0.2459,0.2459,0,0.1553,0.1591,0.1683,0.1704,0.1764,0.1833,0.1906,0.197,0.2065,0.2121,0.2216,0.227,0.2358,0.2408,0.2406,0.2374,0.2471,0.2295,0.2282,0.2389,0.2381,0.2378,0.2368,0.2461,0.246,0.246,0.246,0,0.1497,0.1563,0.1613,0.1712,0.175,0.1794,0.1905,0.1942,0.2061,0.2141,0.2185,0.231,0.238,0.2427,0.2483,0.2407,0.2391,0.2352,0.246,0.2453,0.2192,0.2184,0.2208,0.2203,0.2199,0.2196,0.2193,0,0.1464,0.1487,0.16,0.1624,0.1674,0.1754,0.1798,0.1925,0.1966,0.2142,0.2164,0.2292,0.2356,0.232,0.2381,0.2362,0.2331,0.2297,0.2236,0.2183,0.2169,0.2168,0.2165,0.2187,0.2186,0.2185,0.2184,0,0.1382,0.144,0.1474,0.1533,0.159,0.1648,0.1733,0.1754,0.19,0.2031,0.2098,0.2135,0.2209,0.2238,0.2242,0.2223,0.2303,0.2255,0.2262,0.2205,0.2158,0.2148,0.215,0.217,0.2172,0.2174,0.2174,0,0.1313,0.1314,0.1368,0.1409,0.1473,0.151,0.1579,0.164,0.1709,0.1908,0.1931,0.207,0.2202,0.2167,0.217,0.2143,0.2101,0.2011,0.203,0.2046,0.1969,0.1884,0.1804,0,0,0,0,0,0.1237,0.1221,0.1233,0.1276,0.1338,0.1397,0.1506,0.1581,0.174,0.174,0.183,0.1892,0.1927,0.1994,0.1929,0.2073,0.2092,0.1986,0.1994,0.2095,0.2111,0.2033,0,0,0,0,0,0,0.1176,0.1184,0.1183,0.1155,0.1173,0.1242,0.1318,0.1437,0.1445,0.1616,0.1647,0.1776,0.1834,0.1952,0.1898,0.1912,0.1874,0.207,0.2065,0.2086,0.2101,0.2113,0.2038,0,0,0,0,0]},{"header":{"parameterUnit":"m.s-1","parameterCategory":2,"la1":30.2991,"la2":30.254,"lo1":-89.0895,"lo2":-89.0444,"dy":0.0017,"dx":0.0017,"nx":28,"ny":28,"refTime":"2024-03-27T03:00:00:Z","depth":"4","parameterNumber":3,"parameterNumberName":"V-component_of_CURRENTS"},"data":[0,0,0,0,0,0,0,0,0,0,0,0,0,0,0,0,0,0,0,0,0,0,0,0,0,0,0,0,0,0,0,0,0,0,0,0,0,0,0,0,0,0,0,0,0,0,0,0,0,0,0,0,0,0,0,0,0,0,0.0139,0.0139,0,0.012,0.012,0.012,0.0112,0.0112,0.0113,0.0113,0.0082,0.0081,0.008,0,0,0,0,0,0,0,0,0,0,0,0,0,0.013,0.0131,0.0139,0.0139,0.0139,0.012,0.012,0.012,0.0112,0.0112,0.0113,0.0113,0.0082,0.0081,0.008,0,0,0,0,0,0,0,0,0,0,0,0,0,0.0125,0.0131,0.014,0.0133,0.0133,0.0121,0.012,0.012,0.0112,0.0112,0.0113,0.0113,0.0082,0.0081,0.008,0.0069,0,0,0.0075,0.0075,0,0,0,0,0,0,0,0,0.0125,0.0125,0.0134,0.0134,0.0133,0.0119,0.0106,0.0102,0.0112,0.012,0.0113,0.0113,0.0093,0.0091,0.0087,0.0067,0.0066,0.0075,0.0074,0.0074,0.0073,0,0,0,0,0,0,0,0.0126,0.0126,0.0132,0.0134,0.0133,0.0118,0.0118,0.0105,0.0105,0.0119,0.0119,0.0117,0.0093,0.0088,0.0086,0.0065,0.0075,0.0074,0.0073,0.0073,0.0045,0.0045,0,0,0,0,0,0,0.0131,0.0126,0.0132,0.0131,0.013,0.0119,0.0118,0.0123,0.0106,0.0103,0.0117,0.0117,0.009,0.0088,0.0085,0.0086,0.0074,0.0073,0.0072,0.0045,0.0045,0.0046,0,0,0,0,0,0,0.0131,0.0132,0.0133,0.0128,0.0127,0.0119,0.0124,0.0123,0.0124,0.0104,0.0102,0.012,0.009,0.0087,0.0079,0.0084,0.0072,0.0071,0.0045,0.0045,0.0045,0.0079,0,0,0,0,0,0,0.0131,0.0132,0.0136,0.0129,0.0128,0.0132,0.0124,0.0122,0.0122,0.0122,0.0106,0.0103,0.009,0.0081,0.0078,0.0082,0.007,0.0045,0.0045,0.0045,0.0078,0.008,0.0082,0,0,0,0,0,0.0131,0.0136,0.0137,0.0137,0.0135,0.0132,0.013,0.0124,0.0122,0.0125,0.0114,0.0104,0.008,0.008,0.0076,0.008,0.0045,0.0045,0.0045,0.0077,0.008,0.0082,0,0,0,0,0,0,0.013,0.0136,0.0136,0.0143,0.0141,0.0131,0.0132,0.0128,0.0121,0.0122,0.0105,0.0101,0.0096,0.0083,0.0084,0.0072,0.006,0.006,0.0086,0.0088,0.009,0.01,0.0069,0,0,0,0,0,0.0134,0.0143,0.0142,0.0147,0.0148,0.0141,0.0139,0.0137,0.0129,0.0127,0.0116,0.0103,0.0092,0.0087,0.0074,0.0068,0.0044,0.0067,0.007,0.0072,0.0077,0.0045,0.0045,0.0046,0.0046,0.0046,0,0,0.0133,0.0139,0.0142,0.0148,0.0146,0.0152,0.0141,0.0142,0.0148,0.0124,0.0127,0.0111,0.0092,0.0086,0.0082,0.0077,0.0057,0.0072,0.0074,0.0078,0.0045,0.0045,0.0045,0.0046,0.0046,0.0046,0,0,0.014,0.0145,0.0156,0.0159,0.0162,0.016,0.0163,0.0159,0.0159,0.0157,0.0142,0.0129,0.0114,0.0101,0.0092,0.0098,0.007,0.0095,0.0116,0.0085,0.0084,0.0084,0.0046,0.0042,0.0097,0.0097,0.0097,0,0.0139,0.0157,0.0157,0.0168,0.0176,0.0167,0.0181,0.0177,0.017,0.0171,0.0163,0.0137,0.0121,0.0112,0.0116,0.0104,0.008,0.0108,0.0088,0.0087,0.0086,0.0047,0.0042,0.0099,0.0098,0.0098,0.0098,0,0.0155,0.017,0.0176,0.0194,0.02,0.0209,0.021,0.0211,0.0209,0.0202,0.0194,0.0168,0.0155,0.0145,0.0134,0.012,0.0103,0.0094,0.0082,0.0088,0.0047,0.0041,0.0101,0.01,0.01,0.0099,0,0,0.0154,0.0183,0.0187,0.0208,0.0218,0.0229,0.0236,0.0244,0.0254,0.0234,0.024,0.0213,0.0198,0.0187,0.0166,0.0139,0.0107,0.0119,0.0116,0.0084,0.0032,0.0031,0.0024,0.0095,0.0094,0.0094,0.0004,0,0.0169,0.0205,0.0213,0.0248,0.0269,0.0269,0.0282,0.0285,0.0281,0.0281,0.0247,0.0245,0.0215,0.0214,0.018,0.013,0.0095,0.0132,0.003,0.0027,0.0027,0.0018,0.0092,-0.0,-0.0002,-0.0003,-0.0003,0,0.0186,0.0212,0.0253,0.0293,0.0302,0.0323,0.035,0.036,0.0349,0.0344,0.0324,0.0298,0.0262,0.0237,0.0142,0.0167,0.0105,0.0057,0.0052,0.0037,0.0015,-0.0006,-0.0014,-0.0013,-0.0013,-0.0012,-0.0011,0,0.0203,0.0243,0.0284,0.0297,0.0334,0.0357,0.0377,0.0382,0.0407,0.0391,0.0401,0.0339,0.0327,0.0235,0.0136,0.0141,0.0022,0.0013,-0.0054,-0.0056,-0.0042,-0.0041,-0.006,-0.006,-0.006,-0.006,-0.006,0,0.0225,0.0257,0.0302,0.0327,0.0387,0.0396,0.0452,0.0455,0.047,0.0507,0.0446,0.0451,0.0328,0.0248,0.0144,0.0026,0.0023,-0.0053,-0.0077,-0.0027,-0.0023,-0.0047,-0.0044,-0.0063,-0.0062,-0.0062,-0.0061,0,0.0248,0.0268,0.0324,0.0376,0.0402,0.045,0.0523,0.0558,0.0559,0.0603,0.0605,0.0538,0.0435,0.0293,0.0141,0.0053,-0.0072,-0.0117,-0.0061,-0.008,-0.0134,-0.0128,-0.0196,-0.0197,-0.0198,-0.0198,-0.0199,0,0.0266,0.0297,0.0375,0.0418,0.0453,0.0525,0.058,0.0609,0.0649,0.0661,0.0682,0.0599,0.0537,0.0314,0.0155,-0.0064,-0.009,-0.0165,-0.0143,-0.013,-0.0147,-0.0141,-0.0134,-0.02,-0.02,-0.02,-0.02,0,0.0308,0.0336,0.0388,0.0475,0.0548,0.0627,0.0702,0.0736,0.077,0.0774,0.0757,0.0644,0.0523,0.0334,0.0157,0.0003,-0.0122,-0.0172,-0.0172,-0.0152,-0.0135,-0.015,-0.0143,-0.0202,-0.0202,-0.0202,-0.0202,0,0.0349,0.0391,0.0457,0.0537,0.0625,0.0703,0.0738,0.0787,0.0826,0.0828,0.0821,0.0686,0.0605,0.0368,0.0207,0.005,0.0017,-0.0033,-0.0041,-0.004,0.003,0.0075,0.0052,0,0,0,0,0,0.0386,0.0433,0.0509,0.0596,0.068,0.0733,0.081,0.0832,0.0865,0.0868,0.0846,0.0734,0.051,0.0404,0.025,0.0183,-0.0025,-0.0006,-0.0089,-0.0215,-0.0212,-0.0156,0,0,0,0,0,0,0.0411,0.0484,0.0517,0.0632,0.0695,0.0796,0.0848,0.0868,0.0859,0.0861,0.0741,0.0696,0.0468,0.0604,0.0249,0.02,0.0125,-0.011,-0.0114,-0.0216,-0.0214,-0.0212,-0.0153,0,0,0,0,0]}]]